Overview Statistics Trail Chart Weather Telemetry Raw packets
 

This is the latest recevied weather packets stored in our database for station/object KW4UJ. If no packets are shown the sender has not sent any weather packets the latest 10 day(s).

<< 90 91 92 93 94 95 96 >>
Time Temp. Humidity Pressure Rain* Wind** Luminosity Snow
1787962781 26.67° C 69% 1017.5 hPa 0 mm - 0 W/m² -
1787962481 26.67° C 69% 1017.4 hPa 0 mm - 0 W/m² -
1787962179 26.67° C 69% 1017.4 hPa 0 mm - 0 W/m² -
1787961874 26.67° C 68% 1017.5 hPa 0 mm - 0 W/m² -
1787961572 27.22° C 67% 1017.2 hPa 0 mm - 0 W/m² -
1787961267 27.22° C 67% 1016.9 hPa 0 mm - 1 W/m² -
1787960967 27.22° C 67% 1017.1 hPa 0 mm - 3 W/m² -
1787960662 27.22° C 66% 1017 hPa 0 mm - 5 W/m² -
1787960361 27.22° C 66% 1017 hPa 0 mm - 8 W/m² -
1787960055 27.22° C 65% 1016.9 hPa 0 mm - 11 W/m² -
1787959750 27.22° C 65% 1016.9 hPa 0 mm - 14 W/m² -
1787959446 27.78° C 65% 1017 hPa 0 mm - 17 W/m² -
1787959141 27.78° C 66% 1016.8 hPa 0 mm - 20 W/m² -
1787958835 27.78° C 65% 1016.9 hPa 0 mm - 25 W/m² -
1787958531 27.78° C 64% 1016.5 hPa 0 mm - 29 W/m² -
1787958227 27.78° C 64% 1016.6 hPa 0 mm - 31 W/m² -
1787957926 28.33° C 64% 1016.8 hPa 0 mm - 36 W/m² -
1787957625 28.33° C 64% 1016.8 hPa 0 mm - 42 W/m² -
1787957321 28.33° C 64% 1016.8 hPa 0 mm - 51 W/m² -
1787957020 28.33° C 63% 1016.8 hPa 0 mm - 57 W/m² -
1787956719 28.33° C 63% 1016.7 hPa 0 mm - 60 W/m² -
1787956415 28.33° C 62% 1016.7 hPa 0 mm - 64 W/m² -
1787956110 28.89° C 62% 1016.8 hPa 0 mm - 67 W/m² -
1787955806 28.89° C 62% 1016.6 hPa 0 mm - 68 W/m² -
1787955501 28.89° C 61% 1016.5 hPa 0 mm - 124 W/m² -

* Rain latest hour (hover to see other rain measurements)
** Current wind speed in m/s (hover to see current wind gust speed)